Tracking 30685 objects as of 17-Jun-2025
HD Live streaming from Space Station
objects crossing your sky now

NOAA 16 DEB

Track NOAA 16 DEB now!
10-day predictions


NORAD ID: 41204
Int'l Code: 2000-055DH
Perigee: 819.3 km
Apogee: 851.5 km
Inclination: 98.7 °
Period: 101.5 minutes
Semi major axis: 7206 km
RCS: Unknown
Launch date: September 21, 2000
Source: United States (US)
Launch site: AIR FORCE WESTERN TEST RANGE (AFWTR)

Note: This is SATELLITE DEBRIS
Your satellite tracking list
Your tracking list is empty




NASA's NSSDC Master Catalog

Two Line Element Set (TLE):
1 41204U 00055DH  25168.13173399  .00002189  00000-0  10642-2 0  9994
2 41204  98.7285 232.0684 0022304 189.6249 170.4503 14.19145567490508
Source of the keplerian elements: AFSPC